www.pogodaiklimat.ru

Погода и климат >> Архив погоды >> Марокко >> Рабат


ПОГОДА в Рабате

  • Прогноз погоды в Рабате
  • Монитор погоды в Рабате

АРХИВ ПОГОДЫ в Рабате

Время (UTC), дата Ветер
(напр.,м/с)
 
Видим.   Явления Облачность Т
(С)
Тd
(С)
f
(%)
Тe
(С)
Тes
(С)
Комфортность P
(гПа)
Po
(гПа)
Тmin
(С)
Tmax
(С)
R
(мм)
R24
(мм)
S
(см)
15 13.08 С 10 8000 м ясно +25.8 +16.6 57 +29 +30 душно 1014.1 1005.0
18 13.08 С 8 8000 м ясно +24.1 +16.4 62 +28 +28 душно 1014.0 1004.8 +27.3
21 13.08 ЮЗ 1 8000 м ясно +19.3 +16.5 84 +22 +22 комфорт 1015.8 1006.5
00 14.08 ЮЗ 3 7000 м ясно +19.7 +17.3 86 +22 +22 комфорт 1016.0 1006.7
03 14.08 Ю 3 5000 м ясно +20.0 +17.8 87 +23 +23 комфорт 1014.9 1005.6
06 14.08 Ю 2 6000 м 5/5 600 м
[Sc]
+20.3 +17.5 84 +24 +24 комфорт 1014.6 1005.3 +12.7
09 14.08 З 6 8000 м 4/4 600 м
[Sc]
+24.4 +18.3 69 +29 +31 душно 1015.4 1006.2
12 14.08 СЗ 5 6000 м ясно +26.3 +18.2 61 +31 +41 душно 1015.4 1006.3
15 14.08 СЗ 7 6000 м ясно +27.4 +18.4 58 +32 +36 очень
душно
1014.3 1005.2
18 14.08 СЗ 5 10 км ясно +26.1 +19.2 66 +31 +32 очень
душно
1014.1 1005.0 +28.2
21 14.08 З 3 10 км ясно +21.9 +18.5 81 +27 +27 душно 1015.7 1006.4
00 15.08 З 4 10 км 8/8 210 м
[Sc]
+23.2 +20.3 84 +30 +30 очень
душно
1015.8 1006.6
03 15.08 СЗ 1 10 км 8/8 300 м
[St]
+22.4 +19.6 84 +28 +28 душно 1015.3 1006.1
06 15.08 Ю 3 7000 м ясно +19.6 +17.7 89 +22 +22 комфорт 1015.4 1006.1 +19.6
09 15.08 З 7 8000 м 3/3 450 м
[Sc]
+24.5 +18.9 71 +29 +31 душно 1015.8 1006.6
12 15.08 З 8 10 км ясно +26.2 +18.3 62 +31 +34 очень
душно
1015.7 1006.6
15 15.08 З 10 10 км 4/4 480 м
[Sc]
+25.7 +19.8 70 +31 +32 очень
душно
1014.7 1005.6
18 15.08 5000 м н/о +22.6 +19.4 82 +29 +29 очень
душно
1014.8 1005.6 +27.5
21 15.08 СЗ 4 5000 м 8/8 180 м
[St]
+21.6 +19.0 85 +26 +26 душно 1016.2 1006.9
00 16.08 Ю 4 9000 м 8/8 240 м
[Sc]
+21.2 +18.6 85 +26 +26 душно 1016.0 1006.7
03 16.08 Ю 3 5000 м 8/8 240 м
[Sc]
+19.6 +17.6 88 +22 +22 комфорт 1015.4 1006.1
06 16.08 Ю 3 4000 м дымка 6/6 180 м
[Sc]
+19.3 +17.6 90 +22 +22 комфорт 1015.3 1006.0 +19.1
09 16.08 СЗ 5 10 км ясно +23.3 +19.0 77 +30 +34 очень
душно
1015.5 1006.3
12 16.08 СЗ 7 10 км ясно +25.8 +18.0 62 +30 +36 душно 1015.1 1006.0
15 16.08 СЗ 7 5000 м ясно +27.2 +19.3 62 +33 +36 очень
душно
1013.6 1004.5
18 16.08 С 4 10 км ясно +26.0 +19.6 68 +32 +32 очень
душно
1013.1 1004.0 +27.8
21 16.08 С 5 2400 м дымка 8/8 150 м
[St]
+21.6 +19.5 88 +27 +27 душно 1014.8 1005.5
00 17.08 З 2 4000 м дымка 4/4 180 м
[St]
+20.4 +18.7 90 +25 +25 комфорт 1014.8 1005.5
03 17.08 ЮЗ 3 6000 м дымка 8/8 180 м
[St]
+20.7 +18.8 89 +25 +25 комфорт 1013.7 1004.4
06 17.08 Ю 3 2600 м дымка 8/8 150 м
[St]
+19.3 +17.6 90 +22 +22 комфорт 1013.8 1004.5 +19.3
09 17.08 10 км н/о +24.0 +18.9 73 +29 +30 душно 1013.9 1004.7
12 17.08 СЗ 8 9000 м ясно +26.5 +18.6 62 +31 +35 душно 1013.1 1004.0
15 17.08 СЗ 8 9000 м ясно +27.4 +18.9 60 +33 +35 очень
душно
1012.0 1002.9
18 17.08 З 9 6000 м 8/8 300 м
[St]
+22.9 +19.1 79 +29 +29 очень
душно
1011.7 1002.5 +27.4
21 17.08 З 2 6000 м 9/9 300 м
[St]
+22.1 +18.7 81 +27 +27 душно 1014.1 1004.9
00 18.08 ЮЗ 4 6000 м ясно +20.8 +18.4 86 +25 +25 комфорт 1014.7 1005.4
03 18.08 З 6 10 км 6/6 300 м
[St]
+21.6 +18.8 84 +26 +26 душно 1013.9 1004.7
06 18.08 З 5 8000 м 6/6 300 м
[St]
+21.0 +18.4 85 +25 +25 комфорт 1014.1 1004.8 +20.3
09 18.08 З 8 8000 м 5/5 600 м
[Sc]
+23.6 +17.1 67 +27 +28 жарко 1015.7 1006.5
12 18.08 З 7 8000 м 3/3 600 м
[Sc]
+24.8 +17.3 63 +29 +32 душно 1015.9 1006.7
15 18.08 СЗ 7 8000 м 3/3 600 м
[Sc]
+24.7 +17.6 65 +29 +31 душно 1014.8 1005.6
18 18.08 СЗ 6 8000 м 5/5 450 м
[Sc]
+22.6 +17.9 75 +28 +28 душно 1014.6 1005.4 +25.9
21 18.08 штиль 0 8000 м 8/8 240 м
[Sc]
+20.6 +17.0 80 +24 +24 комфорт 1016.2 1006.9
00 19.08 З 1 8000 м 6/6 300 м
[Sc]
+20.4 +17.4 83 +25 +25 комфорт 1016.6 1007.3
03 19.08 СЗ 2 8000 м 6/6 300 м
[Sc]
+20.0 +17.6 86 +24 +24 комфорт 1015.8 1006.5
06 19.08 ЮВ 3 6000 м 6/6 300 м
[Sc]
+18.7 +15.9 84 +20 +20 1015.6 1006.2 +17.7
09 19.08 СЗ 4 7000 м 4/4 480 м
[Sc]
+23.3 +16.8 67 +28 +32 душно 1016.0 1006.8
12 19.08 СЗ 6 8000 м 3/3 480 м
[Sc]
+25.3 +16.7 59 +29 +34 душно 1015.7 1006.6
15 19.08 СЗ 12 8000 м ясно +25.2 +17.4 62 +29 +29 душно 1015.0 1005.9
18 19.08 С 8 8000 м 6/6 300 м
[St]
+23.5 +18.4 73 +28 +28 душно 1015.0 1005.8 +26.3
21 19.08 С 1 8000 м 6/6 300 м
[St]
+21.7 +18.1 80 +26 +26 душно 1017.0 1007.7
00 20.08 З 2 8000 м 8/8 300 м
[St]
+20.4 +17.6 84 +24 +24 комфорт 1017.4 1008.1
03 20.08 штиль 0 6000 м 8/8 300 м
[St]
+16.6 +14.6 88 +16 +16 1016.0 1006.6
06 20.08 штиль 0 5000 м 8/0
[Ac trans Ci sp]
+14.6 +13.0 90 +14 +14 1016.0 1006.5 +14.5
09 20.08 СЗ 4 10 км 5/4 480 м
[Sc Ci sp]
+22.8 +16.8 69 +28 +31 душно 1016.4 1007.2

 

Местоположение метеостанции Рабат (Марокко): широта 34.05 долгота -6.77 высота над уровнем моря 79 м.

В архиве по умолчанию представлена погода в Рабате за последнюю неделю. Архивные данные за месяц целиком и за предыдущие месяцы, начиная с января 2011 года, Вы можете получить, выбрав интересующий диапазон дат из раскрывающегося списка и нажав кнопку "Ввод!".


*Определитесь, кто Вы:
робот инопланетянин человек

Внимание! Время в таблицах - всемирное. Для получения местного времени необходимо прибавить поправку, которая равна 0 ч.

Смотрите также архив погоды в соседних городах и на ближайших метеорологических станциях:

Погода в Кенитре (Марокко) (32 км)
Погода в Мохаммедии (Марокко) (69 км)
Погода в Касабланке (Марокко) (99 км)
Погода в Нуасере (Марокко) (106 км)
Погода в Мекнесе (Марокко) (116 км)
Погода в Хурибге (Марокко) (133 км)
Погода в Эль-Араише (Марокко) (139 км)
Погода в Сеттате (Марокко) (146 км)
Погода в Фесе (Марокко) (166 км)
Погода в Касба-Тадле (Марокко) (175 км)

Пояснения к столбцам:

Ветер - указаны скорость ветра в м/с - средняя за 10 мин, порывы в срок и между сроками (в фигурных скобках) и направление, откуда дует ветер: С - северный, СВ - северо-восточный, В - восточный, ЮВ - юго-восточный, Ю - южный, ЮЗ - юго-западный, З - западный, СЗ - северо-западный.
Видимость - горизонтальная дальность видимости в метрах или километрах. При видимости от 1 до 10 км при отсутствии осадков обычно наблюдается дымка, при ухудшении видимости до 1 км и менее - туман. В сухую погоду видимость может ухудшаться дымом, пылью или мглою.
Явления - указаны атмосферные явления, наблюдавшиеся в срок или в последний час перед сроком; фигурными скобками обозначены явления, наблюдавшиеся между сроками (за 1-3 часа до срока); квадратными скобками обозначены град или гололедные отложения с указанием их диаметра в мм.
Облачность - указаны через наклонную черту общая и нижняя облачность в баллах и высота нижней границы облаков в метрах; квадратными скобками обозначены формы облаков: Ci - перистые, Cs - перисто-слоистые, Cc - перисто-кучевые, Ac - высококучевые, As - высокослоистые, Sc - слоисто-кучевые, Ns - слоисто-дождевые, Cu - кучевые, Cb - кучево-дождевые. Подробнее классификацию облаков см. в Атласе облаков (PDF).
T - Температура воздуха - температура, измеренная на высоте 2 м над землей.
Td - Температура точки росы - температура, при понижении до которой содержащийся в воздухе водяной пар достигнет насыщения.
f - Относительная влажность воздуха - влажноcть воздуха, измеренная на высоте 2 м над землей.
Te - Эффективная температура - температура, которую ощущает одетый по сезону человек в тени. Характеристика душности погоды. При расчете учитывается влияние влажности воздуха и скорости ветра на теплоощущения человека.
Tes - Эффективная температура на солнце - температура, которую ощущает человек, с поправкой на солнечный нагрев. Характеристика знойности погоды. Зависит от высоты солнца над горизонтом, облачности и скорости ветра. Ночью, в пасмурную погоду, а также при ветре 12 м/с и более поправка равна нулю.
P - Атмосферное давление - приведенное к уровню моря атмосферное давление.
Po - Атмосферное давление - измеренное на уровне метеостанции атмосферное давление.
Tmin - Минимальная температура - минимум температуры воздуха на высоте 2 м над землей.
Tmax - Максимальная температура - максимум температуры воздуха на высоте 2 м над землей.
R - Количество осадков - Количество выпавших осадков за период времени, мм. При наведении курсора мыши на число - период времени, за который выпало указанное количество осадков.
R24 - Количество осадков - Количество выпавших осадков за 24 часа, мм.
S - Снежный покров - Высота снежного покрова, см. При наведении курсора мыши на число - состояние снежного покрова и степень покрытия местности в баллах.